Weather History for Garden City, KS

Change the Weather History Date:

Sunday, March 30, 2014

  Actual Average Record
Temperature  
Mean Temperature 65 °F 48 °F  
Max Temperature 82 °F 62 °F 89 °F (1986)
Min Temperature 47 °F 33 °F 2 °F (1987)
Degree Days  
Heating Degree Days 0 17  
Month to date heating degree days 728 646  
Since 1 July heating degree days 4904 4670  
Cooling Degree Days 0 0  
Month to date cooling degree days 0 0  
Year to date cooling degree days 0 0  
Growing Degree Days 14 (Base 50)    
Moisture  
Dew Point 27 °F    
Average Humidity 25    
Maximum Humidity 39    
Minimum Humidity 11    
Precipitation  
Precipitation 0.00 in 0.06 in 1.21 in (1973)
Month to date precipitation 0.04 1.40  
Year to date precipitation 0.20 2.28  
Sea Level Pressure  
Sea Level Pressure 29.72 in    
Wind  
Wind Speed 20 mph (SSW)    
Max Wind Speed 35 mph    
Max Gust Speed 42 mph    
Visibility 10 miles    
Events      
T = Trace of Precipitation, MM = Missing Value Source: NWS Daily Summary

Daily Weather History Graph

Daily Weather History Graph

Search for Another Location

Airport:

Trip Planner

Search our weather history database for the weather conditions in past years. The results will help you decide how hot, cold, wet, or windy it might be!

Date:

Astronomy

Mar. 30, 2014 Rise Set
Actual Time 7:31 AM CDT 8:04 PM CDT
Civil Twilight 7:04 AM CDT 8:30 PM CDT
Nautical Twilight 6:33 AM CDT 9:01 PM CDT
Astronomical Twilight 6:01 AM CDT 9:33 PM CDT
Moon 7:18 AM CDT (3/30) 8:18 PM CDT (3/30)
Length of Visible Light 13h 25m
Length of Day
12h 33m
Waning Crescent, 0% of the Moon is Illuminated
Mar 30
Waning Crescent
Mar 30
New
Apr 7
First Quarter
Apr 15
Full
Apr 22
Last Quarter

Hourly Weather History & Observations

Time (CDT) Temp. Dew Point Humidity Pressure Visibility Wind Dir Wind Speed Gust Speed Precip Events Conditions
12:54 AM 54.0 °F 21.9 °F 29% 29.94 in 10.0 mi South 23.0 mph 32.2 mph N/A   Clear
1:54 AM 52.0 °F 21.9 °F 31% 29.93 in 10.0 mi South 19.6 mph - N/A   Clear
2:54 AM 50.0 °F 23.0 °F 35% 29.91 in 10.0 mi South 18.4 mph - N/A   Clear
3:54 AM 50.0 °F 23.0 °F 35% 29.88 in 10.0 mi South 17.3 mph - N/A   Clear
4:54 AM 50.0 °F 23.0 °F 35% 29.86 in 10.0 mi South 19.6 mph - N/A   Clear
5:54 AM 50.0 °F 23.0 °F 35% 29.85 in 10.0 mi South 15.0 mph - N/A   Clear
6:54 AM 48.9 °F 23.0 °F 36% 29.86 in 10.0 mi South 12.7 mph - N/A   Clear
7:54 AM 48.0 °F 24.1 °F 39% 29.87 in 10.0 mi South 8.1 mph - N/A   Clear
8:54 AM 51.1 °F 26.1 °F 38% 29.86 in 10.0 mi South 6.9 mph - N/A   Clear
9:54 AM 57.9 °F 30.0 °F 35% 29.84 in 10.0 mi WSW 13.8 mph - N/A   Clear
10:54 AM 62.1 °F 32.0 °F 32% 29.80 in 10.0 mi SW 23.0 mph 29.9 mph N/A   Clear
11:54 AM 66.9 °F 32.0 °F 27% 29.77 in 10.0 mi SW 28.8 mph 35.7 mph N/A   Clear
12:54 PM 70.0 °F 32.0 °F 25% 29.74 in 10.0 mi SSW 28.8 mph 36.8 mph N/A   Clear
1:54 PM 73.9 °F 33.1 °F 22% 29.70 in 10.0 mi SSW 21.9 mph 32.2 mph N/A   Clear
2:54 PM 78.1 °F 30.0 °F 17% 29.65 in 10.0 mi SSW 20.7 mph 33.4 mph N/A   Clear
3:54 PM 81.0 °F 26.1 °F 13% 29.59 in 10.0 mi SSW 26.5 mph 36.8 mph N/A   Clear
4:54 PM 81.0 °F 21.0 °F 11% 29.57 in 10.0 mi SW 31.1 mph 40.3 mph N/A   Clear
5:54 PM 80.1 °F 21.9 °F 12% 29.55 in 10.0 mi SSW 25.3 mph 33.4 mph N/A   Clear
6:54 PM 78.1 °F 23.0 °F 13% 29.53 in 10.0 mi SSW 17.3 mph - N/A   Clear
7:54 PM 72.0 °F 25.0 °F 17% 29.53 in 10.0 mi South 11.5 mph - N/A   Clear
8:54 PM 70.0 °F 28.9 °F 22% 29.52 in 10.0 mi SSE 13.8 mph - N/A   Clear
9:54 PM 66.9 °F 36.0 °F 32% 29.51 in 10.0 mi South 23.0 mph 32.2 mph N/A   Clear
10:54 PM 66.9 °F 35.1 °F 31% 29.49 in 10.0 mi South 29.9 mph 41.4 mph N/A   Clear
11:54 PM 66.0 °F 34.0 °F 30% 29.47 in 10.0 mi South 27.6 mph 38.0 mph N/A   Clear